Flag for Austria Weather past 2 weeks in Stockerau, Lower Austria, Austria

Now
90 °F

Passing clouds.


Feels Like: 93 °F
Forecast: 62 / 97 °F
Wind: 14 mph from West

Location: Tulln Airport

Current Time: Jul 6, 2015 at 8:47:15 PM

Latest Report: Jul 6, 2015 at 6:50 PM


Visibility: 15 mi

Pressure: 30.04 "Hg

Humidity: 49%

Dew point: 68 °F

Location of StockerauLocation

Historic Weather in Stockerau — Graph

°F

Stockerau temperature yesterday

Maximum temperature yesterday: 95 °F (at 1:50 PM)
Minimum temperature yesterday: 64 °F (at 6:50 AM)
Average temperature yesterday: 84 °F

Past Weeks' High & Low Weather Summary

 TemperatureHumidityPressure
High95 °F (Jul 5, 1:50 PM)100% (Jun 22, 9:50 PM)30.30 "Hg (Jun 22, 9:50 PM)
Low48 °F (Jun 25, 5:50 AM)16% (Jul 5, 5:50 PM)29.80 "Hg (Jun 23, 6:50 AM)
Average72 °F60%30.12 "Hg
* Reported Jun 21 7:50 PM — Jul 6 6:50 PM, Stockerau, Weather by CustomWeather, © 2015

Note: Actual official high and low records may vary slightly from our data, if they occured in-between our weather recording intervals... More about our weather records

Advertising

Stockerau weather history for previous 24 hours

 ConditionsComfort  
Time TempWeatherWind HumidityBarometerVisibility
6:50 PM
Mon, Jul 6
90 °FPassing clouds.14 mph49%30.04 "Hg16 mi
5:50 PM90 °FPassing clouds.17 mph46%30.04 "Hg16 mi
4:50 PM91 °FPassing clouds.20 mph46%30.04 "Hg16 mi
3:50 PM90 °FPassing clouds.23 mph49%30.04 "Hg16 mi
2:50 PM90 °FScattered clouds.21 mph46%30.07 "Hg16 mi
1:50 PM86 °FPartly sunny.25 mph52%30.07 "Hg19 mi
12:50 PM88 °FBroken clouds.24 mph49%30.07 "Hg19 mi
11:50 AM86 °FBroken clouds.25 mph52%30.07 "Hg19 mi
10:50 AM84 °FPartly sunny.24 mph55%30.07 "Hg19 mi
9:50 AM77 °FBroken clouds.18 mph65%30.07 "Hg16 mi
8:50 AM79 °FScattered clouds.10 mph54%30.07 "Hg16 mi
7:50 AM72 °FPartly sunny.5 mph65%30.04 "Hg22 mi
6:50 AM68 °FScattered clouds.5 mph73%30.01 "Hg22 mi
5:50 AM63 °FPassing clouds.3 mph83%29.98 "Hg28 mi
10:50 PM
Sun, Jul 5
81 °FPassing clouds.7 mph37%29.98 "Hg19 mi
9:50 PM82 °FPassing clouds.9 mph35%29.98 "Hg25 mi
8:50 PM66 °FScattered clouds.10 mph60%29.98 "Hg28 mi
Weather by CustomWeather, © 2015

See weather overviewHow to use our weather pages